This is the latest recevied weather packets stored in our database for station/object DJ4CK-1. If no packets are shown the sender has not sent any weather packets the latest 1 day(s).
| Time | Temp. | Humidity | Pressure | Rain* | Wind** | Luminosity | Snow |
|---|---|---|---|---|---|---|---|
| 1778100484 | 11.67° C | 88% | 1008.4 hPa | 0 mm | - | - | - |
| 1778100424 | 11.67° C | 88% | 1008.4 hPa | 0 mm | - | - | - |
| 1778100244 | 11.67° C | 87% | 1008.3 hPa | 0 mm | - | - | - |
| 1778100004 | 11.67° C | 86% | 1008.3 hPa | 0 mm | - | - | - |
| 1778099944 | 11.67° C | 86% | 1008.3 hPa | 0 mm | - | - | - |
| 1778099703 | 11.67° C | 86% | 1008.3 hPa | 0 mm | - | - | - |
| 1778099284 | 11.67° C | 86% | 1008.2 hPa | 0 mm | - | - | - |
| 1778099223 | 11.67° C | 86% | 1008.2 hPa | 0 mm | - | - | - |
| 1778099044 | 11.67° C | 86% | 1008.1 hPa | 0 mm | - | - | - |
| 1778098504 | 11.67° C | 85% | 1007.9 hPa | 0 mm | - | - | - |
| 1778097844 | 11.11° C | 86% | 1007.8 hPa | 0 mm | - | - | - |
| 1778097604 | 11.67° C | 86% | 1007.6 hPa | 0 mm | - | - | - |
| 1778097244 | 11.67° C | 86% | 1007.6 hPa | 0 mm | - | - | - |
| 1778097004 | 11.67° C | 84% | 1007.8 hPa | 0 mm | - | - | - |
| 1778096943 | 11.67° C | 84% | 1007.8 hPa | 0 mm | - | - | - |
| 1778096463 | 11.67° C | 86% | 1007.6 hPa | 0 mm | - | - | - |
| 1778096224 | 11.67° C | 84% | 1007.6 hPa | 0 mm | - | - | - |
| 1778095864 | 11.67° C | 84% | 1007.4 hPa | 0 mm | - | - | - |
| 1778095384 | 11.67° C | 81% | 1007.2 hPa | 0 mm | - | - | - |
| 1778095144 | 11.67° C | 88% | 1007.1 hPa | 0 mm | - | - | - |
| 1778095083 | 11.67° C | 87% | 1007.1 hPa | 0 mm | - | - | - |
| 1778094904 | 11.67° C | 83% | 1007 hPa | 0 mm | - | - | - |
| 1778094844 | 11.67° C | 83% | 1007 hPa | 0 mm | - | - | - |
| 1778094664 | 11.67° C | 83% | 1007 hPa | 0 mm | - | - | - |
| 1778094604 | 11.67° C | 84% | 1006.9 hPa | 0 mm | - | - | - |
* Rain latest hour (hover to see other rain measurements)
** Current wind speed in m/s (hover to see current wind gust speed)